When you browse on this site, cookies collect data to enhance your experience and personalize the content and advertising you see.
Visit our Privacy Policy to learn more. By continuing to use the site, you agree to this use of cookies and data.
  • In Deutschland
  • Länderverzeichnis
  • Für 7 Tage
  • Wassertemperatur
  • Wetterkarte
  • Widgets
  • user-avatar
    Anmelden

    Stündliche Wetter Yelsk

    Heute, 26 Mai, Dienstag

    Zeit Temperatur Niederschläge Wind Luftdruck Luftfeuchtigkeit
    00:00 +9°C° 0.1 mm 2 m/S 752 mmHg 92%
    01:00 +9°C° 0.1 mm 2 m/S 752 mmHg 93%
    02:00 +9°C° 0 mm 3 m/S 752 mmHg 98%
    03:00 +9°C° 0.5 mm 3 m/S 752 mmHg 98%
    04:00 +9°C° 0.5 mm 3 m/S 752 mmHg 98%
    05:00 +9°C° 0.5 mm 3 m/S 752 mmHg 97%
    06:00 +10°C° 1 mm 3 m/S 752 mmHg 97%
    07:00 +10°C° 1 mm 4 m/S 752 mmHg 97%
    08:00 +10°C° 0 mm 4 m/S 753 mmHg 96%
    09:00 +11°C° 0.4 mm 3 m/S 753 mmHg 93%
    10:00 +11°C° 0.4 mm 3 m/S 753 mmHg 90%
    11:00 +12°C° 0.4 mm 3 m/S 753 mmHg 87%
    12:00 +14°C° 0.2 mm 2 m/S 753 mmHg 85%
    13:00 +14°C° 0.2 mm 2 m/S 753 mmHg 82%
    14:00 +14°C° 0.2 mm 2 m/S 753 mmHg 79%
    15:00 +14°C° 0 mm 1 m/S 753 mmHg 80%
    16:00 +14°C° 0 mm 1 m/S 753 mmHg 81%
    17:00 +14°C° 0 mm 1 m/S 753 mmHg 82%
    18:00 +13°C° 0 mm 1 m/S 753 mmHg 84%
    19:00 +13°C° 0 mm 2 m/S 753 mmHg 86%
    20:00 +12°C° 0 mm 2 m/S 753 mmHg 87%
    21:00 +12°C° 0 mm 2 m/S 753 mmHg 89%
    22:00 +10°C° 0 mm 2 m/S 753 mmHg 90%
    23:00 +10°C° 0 mm 2 m/S 753 mmHg 92%

    Morgen, 27 Mai, Mittwoch

    Zeit Temperatur Niederschläge Wind Luftdruck Luftfeuchtigkeit
    00:00 +10°C° 0 mm 2 m/S 753 mmHg 92%
    01:00 +10°C° 0 mm 2 m/S 752 mmHg 92%
    02:00 +10°C° 0 mm 2 m/S 752 mmHg 92%
    03:00 +10°C° 0.2 mm 2 m/S 752 mmHg 93%
    04:00 +10°C° 0.2 mm 2 m/S 752 mmHg 94%
    05:00 +9°C° 0.2 mm 2 m/S 752 mmHg 95%
    06:00 +10°C° 0.4 mm 2 m/S 752 mmHg 95%
    07:00 +10°C° 0.4 mm 2 m/S 752 mmHg 94%
    08:00 +10°C° 0.4 mm 2 m/S 752 mmHg 94%
    09:00 +12°C° 0.3 mm 2 m/S 752 mmHg 92%
    10:00 +11°C° 0.3 mm 3 m/S 752 mmHg 89%
    11:00 +12°C° 0.3 mm 3 m/S 752 mmHg 87%
    12:00 +13°C° 0.1 mm 3 m/S 752 mmHg 80%
    13:00 +16°C° 0.1 mm 2 m/S 752 mmHg 72%
    14:00 +17°C° 0.1 mm 2 m/S 751 mmHg 64%
    15:00 +17°C° 0.1 mm 2 m/S 751 mmHg 65%
    16:00 +17°C° 0.1 mm 3 m/S 751 mmHg 66%
    17:00 +17°C° 0.1 mm 3 m/S 751 mmHg 67%
    18:00 +16°C° 0.2 mm 2 m/S 751 mmHg 74%
    19:00 +14°C° 0.2 mm 2 m/S 751 mmHg 81%
    20:00 +13°C° 0.2 mm 1 m/S 751 mmHg 88%
    21:00 +12°C° 0 mm 1 m/S 750 mmHg 89%
    22:00 +11°C° 0 mm 1 m/S 750 mmHg 90%
    23:00 +11°C° 0 mm 1 m/S 750 mmHg 92%

    übermorgen, 28 Mai, Donnerstag

    Zeit Temperatur Niederschläge Wind Luftdruck Luftfeuchtigkeit
    00:00 +10°C° 0 mm 1 m/S 750 mmHg 92%
    01:00 +10°C° 0 mm 1 m/S 750 mmHg 93%
    02:00 +9°C° 0 mm 1 m/S 750 mmHg 93%
    03:00 +9°C° 0 mm 1 m/S 750 mmHg 94%
    04:00 +8°C° 0 mm 2 m/S 749 mmHg 94%
    05:00 +8°C° 0 mm 2 m/S 749 mmHg 95%
    06:00 +10°C° 0 mm 2 m/S 749 mmHg 89%
    07:00 +13°C° 0 mm 2 m/S 749 mmHg 84%
    08:00 +14°C° 0 mm 3 m/S 749 mmHg 79%
    09:00 +16°C° 0.5 mm 3 m/S 748 mmHg 76%
    10:00 +17°C° 0.5 mm 3 m/S 748 mmHg 74%
    11:00 +18°C° 0.5 mm 3 m/S 747 mmHg 71%
    12:00 +18°C° 0.7 mm 3 m/S 747 mmHg 70%
    13:00 +19°C° 0.7 mm 3 m/S 746 mmHg 70%
    14:00 +19°C° 0.7 mm 3 m/S 746 mmHg 69%
    15:00 +19°C° 0.2 mm 3 m/S 745 mmHg 69%
    16:00 +19°C° 0.2 mm 3 m/S 745 mmHg 68%
    17:00 +19°C° 0.2 mm 3 m/S 745 mmHg 68%
    18:00 +17°C° 0.3 mm 3 m/S 745 mmHg 75%
    19:00 +14°C° 0.3 mm 3 m/S 744 mmHg 82%
    20:00 +14°C° 0.3 mm 2 m/S 744 mmHg 89%
    21:00 +13°C° 0.1 mm 2 m/S 744 mmHg 91%
    22:00 +12°C° 0.1 mm 2 m/S 744 mmHg 93%
    23:00 +12°C° 0.1 mm 2 m/S 744 mmHg 95%

    29 Mai, Freitag

    Zeit Temperatur Niederschläge Wind Luftdruck Luftfeuchtigkeit
    00:00 +12°C° 0 mm 2 m/S 743 mmHg 95%
    01:00 +10°C° 0 mm 2 m/S 743 mmHg 96%
    02:00 +10°C° 0 mm 2 m/S 743 mmHg 96%
    03:00 +10°C° 0 mm 2 m/S 743 mmHg 96%
    04:00 +10°C° 0 mm 3 m/S 742 mmHg 96%
    05:00 +10°C° 0 mm 3 m/S 742 mmHg 96%
    06:00 +11°C° 0.1 mm 3 m/S 743 mmHg 95%
    07:00 +11°C° 0.1 mm 3 m/S 743 mmHg 94%
    08:00 +12°C° 0.1 mm 3 m/S 743 mmHg 93%
    09:00 +13°C° 0.3 mm 4 m/S 743 mmHg 87%
    10:00 +14°C° 0.3 mm 4 m/S 743 mmHg 82%
    11:00 +15°C° 0.3 mm 4 m/S 743 mmHg 77%
    12:00 +17°C° 0.3 mm 4 m/S 743 mmHg 75%
    13:00 +17°C° 0.3 mm 4 m/S 743 mmHg 72%
    14:00 +17°C° 0.3 mm 3 m/S 743 mmHg 70%
    15:00 +17°C° 0.3 mm 3 m/S 743 mmHg 72%
    16:00 +17°C° 0.3 mm 3 m/S 743 mmHg 74%
    17:00 +17°C° 0.3 mm 2 m/S 743 mmHg 76%
    18:00 +16°C° 0.3 mm 2 m/S 743 mmHg 81%
    19:00 +15°C° 0.3 mm 2 m/S 744 mmHg 85%
    20:00 +14°C° 0.3 mm 2 m/S 744 mmHg 90%
    21:00 +13°C° 0 mm 2 m/S 744 mmHg 91%
    22:00 +13°C° 0 mm 2 m/S 744 mmHg 93%
    23:00 +12°C° 0 mm 2 m/S 744 mmHg 94%

    30 Mai, Samstag

    Zeit Temperatur Niederschläge Wind Luftdruck Luftfeuchtigkeit
    00:00 +12°C° 0 mm 2 m/S 744 mmHg 95%
    01:00 +10°C° 0 mm 3 m/S 744 mmHg 95%
    02:00 +10°C° 0 mm 3 m/S 744 mmHg 95%
    03:00 +9°C° 0 mm 3 m/S 744 mmHg 95%
    04:00 +9°C° 0 mm 3 m/S 744 mmHg 94%
    05:00 +9°C° 0 mm 3 m/S 744 mmHg 94%
    06:00 +10°C° 0 mm 4 m/S 744 mmHg 89%
    07:00 +12°C° 0 mm 5 m/S 744 mmHg 83%
    08:00 +13°C° 0 mm 5 m/S 744 mmHg 78%
    09:00 +14°C° 0 mm 6 m/S 744 mmHg 72%
    10:00 +15°C° 0 mm 6 m/S 744 mmHg 65%
    11:00 +17°C° 0 mm 6 m/S 743 mmHg 59%
    12:00 +17°C° 0 mm 6 m/S 743 mmHg 59%
    13:00 +17°C° 0 mm 6 m/S 743 mmHg 58%
    14:00 +19°C° 0 mm 6 m/S 743 mmHg 58%
    15:00 +17°C° 0 mm 6 m/S 743 mmHg 60%
    16:00 +17°C° 0 mm 6 m/S 743 mmHg 62%
    17:00 +17°C° 0 mm 5 m/S 743 mmHg 64%
    18:00 +15°C° 0 mm 4 m/S 742 mmHg 68%
    19:00 +14°C° 0 mm 4 m/S 742 mmHg 73%
    20:00 +13°C° 0 mm 3 m/S 742 mmHg 77%
    21:00 +12°C° 0 mm 3 m/S 742 mmHg 80%
    22:00 +12°C° 0 mm 3 m/S 742 mmHg 82%
    23:00 +11°C° 0 mm 4 m/S 742 mmHg 84%

    31 Mai, Sonntag

    Zeit Temperatur Niederschläge Wind Luftdruck Luftfeuchtigkeit
    00:00 +11°C° 0 mm 4 m/S 742 mmHg 85%
    01:00 +10°C° 0 mm 4 m/S 742 mmHg 86%
    02:00 +9°C° 0 mm 5 m/S 741 mmHg 88%
    03:00 +9°C° 0 mm 5 m/S 741 mmHg 88%
    04:00 +9°C° 0 mm 5 m/S 741 mmHg 89%
    05:00 +9°C° 0 mm 5 m/S 741 mmHg 90%
    06:00 +10°C° 0 mm 5 m/S 741 mmHg 86%
    07:00 +10°C° 0 mm 5 m/S 741 mmHg 83%
    08:00 +11°C° 0 mm 6 m/S 741 mmHg 80%
    09:00 +13°C° 0 mm 6 m/S 741 mmHg 78%
    10:00 +14°C° 0 mm 6 m/S 741 mmHg 76%
    11:00 +14°C° 0 mm 5 m/S 741 mmHg 74%
    12:00 +15°C° 0 mm 5 m/S 742 mmHg 73%
    13:00 +15°C° 0 mm 5 m/S 742 mmHg 72%
    14:00 +16°C° 0 mm 5 m/S 742 mmHg 71%
    15:00 +17°C° 0 mm 4 m/S 742 mmHg 70%
    16:00 +17°C° 0 mm 4 m/S 742 mmHg 69%
    17:00 +17°C° 0 mm 4 m/S 742 mmHg 69%
    18:00 +16°C° 0 mm 3 m/S 742 mmHg 74%
    19:00 +15°C° 0 mm 2 m/S 742 mmHg 80%
    20:00 +14°C° 0 mm 1 m/S 742 mmHg 86%
    21:00 +13°C° 0 mm 1 m/S 743 mmHg 89%
    22:00 +12°C° 0 mm 1 m/S 743 mmHg 91%
    23:00 +12°C° 0 mm 1 m/S 743 mmHg 94%
    Mehr zeigen